www.pogodaiklimat.ru
ПОГОДА в Гузаре

Архив погоды в Гузаре (Кашкадарьинская область, Узбекистан)

Время
и дата
03:00 17.04
03:10 17.04
03:20 17.04
03:30 17.04
03:40 17.04
03:50 17.04
04:00 17.04
04:20 17.04
04:30 17.04
04:40 17.04
04:50 17.04
05:00 17.04
05:10 17.04
05:20 17.04
05:30 17.04
05:40 17.04
05:50 17.04
06:00 17.04
06:10 17.04
06:20 17.04
06:30 17.04
06:40 17.04
06:50 17.04
07:00 17.04
07:10 17.04
07:20 17.04
08:30 17.04
08:50 17.04
10:40 17.04
16:20 17.04
16:40 17.04
16:50 17.04
17:00 17.04
17:10 17.04
17:20 17.04
17:30 17.04
17:40 17.04
17:50 17.04
18:00 17.04
18:10 17.04
18:20 17.04
18:30 17.04
18:40 17.04
18:50 17.04
19:00 17.04
19:10 17.04
19:20 17.04
19:30 17.04
19:40 17.04
19:50 17.04
20:00 17.04
20:10 17.04
20:20 17.04
20:30 17.04
20:40 17.04
20:50 17.04
21:00 17.04
21:10 17.04
21:20 17.04
21:30 17.04
21:40 17.04
21:50 17.04
22:00 17.04
22:10 17.04
22:20 17.04
22:30 17.04
22:40 17.04
22:50 17.04
23:00 17.04
23:10 17.04
23:20 17.04
23:30 17.04
23:40 17.04
23:50 17.04
00:00 18.04
00:20 18.04
00:30 18.04
01:00 18.04
01:10 18.04
01:20 18.04
01:30 18.04
01:40 18.04
01:50 18.04
02:00 18.04
02:10 18.04
02:20 18.04
02:30 18.04
02:40 18.04
02:50 18.04
03:00 18.04
03:10 18.04
03:20 18.04
03:30 18.04
03:40 18.04
03:50 18.04
04:00 18.04
04:10 18.04
04:20 18.04
04:30 18.04
04:40 18.04
04:50 18.04
05:00 18.04
05:40 18.04
05:50 18.04
06:00 18.04
06:10 18.04
06:20 18.04
06:30 18.04
06:40 18.04
06:50 18.04
07:10 18.04
07:20 18.04
07:40 18.04
07:50 18.04
08:00 18.04
08:10 18.04
08:20 18.04
11:00 18.04
11:40 18.04
12:10 20.04
12:30 20.04
12:40 20.04
12:50 20.04
13:00 20.04
13:10 20.04
13:30 20.04
13:50 20.04
14:00 20.04
14:10 20.04
14:30 20.04
14:40 20.04
14:50 20.04
15:10 20.04
15:30 20.04
15:40 20.04
15:50 20.04
16:00 20.04
16:10 20.04
16:20 20.04
16:30 20.04
16:50 20.04
17:00 20.04
17:20 20.04
17:30 20.04
Ветер
(напр.,м/с)
Видимость Явления Солнечная радиация
(Вт/м2)
Т
(С)
Тd
(С)
f
(%)
Тe
(С)
Тes
(С)
Комфортность P
(гПа)
Po
(гПа)
Тmin
(С)
Tmax
(С)
R
(мм)
ЮВ 1.3
{2.3}
+11.6 +11.6 100 +11 +11 1020.1 958.4 +11.6 +11.5
ЮВ 1.6
{2.8}
+11.6 +11.6 100 +11 +11 1020.2 958.5 +11.7 +11.5
ЮВ 1.6
{2.7}
+11.6 +11.6 100 +11 +11 1019.9 958.3 +11.7 +11.6
ЮВ 1.2
{1.8}
+11.4 +11.4 100 +11 +11 1019.7 958.1 +11.6 +11.4
ЮВ 1.0
{1.5}
+11.0 +11.0 100 +11 +11 1019.6 958.0 +11.4 +11.0
ЮВ 1.1
{1.9}
+10.9 +10.9 100 +10 +10 1019.6 958.0 +11.0 +10.9
ЮВ 1.3
{2.3}
+11.0 +11.0 100 +10 +10 1019.5 957.9 +11.1 +10.9
Ю 1.5
{3.1}
+11.2 +11.1 100 +10 +10 1019.4 957.8 +11.2 +11.0
ЮВ 1.6
{3.1}
+11.2 +11.0 99 +10 +10 1019.4 957.8 +11.2 +11.1
ЮВ 1.5
{2.5}
+11.1 +10.8 98 +10 +10 1019.3 957.7 +11.2 +11.1
ЮВ 1.4
{2.1}
+11.1 +10.5 96 +10 +10 1019.2 957.6 +11.1 +11.1
ЮВ 1.4
{2.4}
+11.1 +10.4 96 +10 +10 1019.1 957.5 +11.2 +11.1
Ю 1.1
{1.7}
+10.9 +10.6 98 +10 +10 1019.2 957.6 +11.2 +10.9
ЮВ 1.0
{1.8}
+10.6 +10.6 100 +10 +10 1019.1 957.5 +10.9 +10.6
ЮВ 1.1
{1.8}
+10.4 +10.4 100 +10 +10 1019.1 957.5 +10.6 +10.4
ЮВ 1.1
{1.8}
+10.3 +10.3 100 +10 +10 1019.1 957.5 +10.4 +10.2
Ю 1.2
{2.2}
+10.3 +10.3 100 +9 +9 1019.1 957.5 +10.4 +10.3
ЮВ 1.1
{1.7}
+10.2 +10.2 100 +9 +9 1019.0 957.4 +10.3 +10.2
ЮВ 0.9
{1.7}
+10.0 +10.0 100 +9 +9 1019.0 957.4 +10.3 +10.0
ЮВ 1.1
{1.8}
+10.3 +10.3 100 +10 +10 1018.9 957.3 +10.3 +10.0
Ю 1.0
{2.0}
+10.7 +10.7 100 +10 +10 1019.0 957.4 +10.7 +10.3
ЮВ 1.6
{3.0}
+11.5 +10.6 95 +11 +11 1019.0 957.4 +11.5 +10.7
ЮВ 1.7
{3.2}
+12.1 +10.7 91 +11 +11 1018.9 957.3 +12.1 +11.5
ЮВ 1.8
{2.8}
+12.8 +10.8 88 +12 +12 1018.9 957.3 +12.7 +12.1
ЮВ 1.9
{3.8}
+13.4 +10.7 84 +13 +13 1018.9 957.3 +13.4 +12.8
ЮВ 2.1
{3.6}
+13.8 +10.8 82 +13 +13 1018.9 957.3 +13.8 +13.4
В 1.3
{2.5}
+18.0 +11.1 64 +19 +19 1018.7 957.1 +18.0 +17.4
В 1.3
{2.9}
+18.5 +10.3 59 +20 +20 1018.5 956.9 +18.7 +18.2
С 1.7
{4.1}
+21.0 +9.7 49 +24 +24 комфорт 1017.6 956.1 +21.2 +20.6
С 2.2
{5.0}
+24.0 +11.6 46 +26 +26 жарко 1013.2 951.9 +24.0 +23.5
СВ 1.9
{4.1}
+23.9 +9.4 40 +25 +25 комфорт 1013.0 951.7 +24.3 +23.7
С 1.7
{3.2}
+23.8 +10.3 42 +25 +25 комфорт 1013.0 951.7 +24.0 +23.7
С 1.7
{3.4}
+23.9 +9.7 41 +25 +25 комфорт 1013.0 951.7 +23.9 +23.6
С 1.3
{2.9}
+23.6 +9.6 41 +25 +25 комфорт 1013.0 951.7 +24.0 +23.6
С 1.6
{3.1}
+23.4 +9.5 41 +25 +25 комфорт 1013.0 951.7 +23.7 +23.3
С 1.0
{2.3}
+23.7 +10.0 42 +25 +25 комфорт 1012.9 951.6 +23.7 +23.4
СВ 1.2
{2.8}
+23.9 +10.2 42 +25 +25 комфорт 1012.9 951.6 +24.0 +23.6
С 0.8
{2.8}
+23.9 +9.9 41 +25 +25 комфорт 1012.9 951.6 +24.3 +23.9
В 1.3
{2.7}
+23.8 +10.0 42 +25 +25 комфорт 1012.9 951.6 +24.0 +23.7
СВ 1.1
{2.6}
+23.6 +10.4 43 +25 +25 комфорт 1012.8 951.5 +23.9 +23.6
В 1.3
{2.5}
+23.1 +10.5 45 +25 +25 комфорт 1012.8 951.5 +23.6 +23.1
СВ 1.6
{2.7}
+22.9 +10.3 45 +25 +25 комфорт 1012.7 951.4 +23.1 +22.9
СВ 1.3
{2.6}
+22.9 +9.8 43 +25 +25 комфорт 1012.6 951.3 +23.0 +22.9
СВ 1.5
{2.4}
+22.5 +9.8 44 +24 +24 комфорт 1012.5 951.2 +22.9 +22.5
СВ 0.9
{2.0}
+22.1 +10.2 47 +24 +24 комфорт 1012.5 951.2 +22.5 +22.1
СВ 0.6
{1.2}
+21.5 +9.9 48 +23 +23 комфорт 1012.5 951.2 +22.1 +21.5
ЮВ 0.5
{0.8}
+20.5 +10.6 53 +24 +24 комфорт 1012.6 951.3 +21.5 +20.5
В 0.4
{0.7}
+19.6 +11.4 59 +23 +23 комфорт 1012.7 951.4 +20.5 +19.6
СВ 0.3
{0.4}
+19.0 +11.3 61 +22 +22 комфорт 1012.7 951.4 +19.6 +19.0
С 0.2
{1.0}
+18.4 +11.8 65 +21 +21 комфорт 1012.7 951.4 +19.0 +18.4
С 1.1
{1.7}
+18.1 +11.7 66 +19 +19 1012.8 951.5 +18.4 +18.1
С 1.0
{2.2}
+17.9 +12.2 69 +19 +19 1012.8 951.5 +18.1 +17.9
СВ 0.8
{1.8}
+18.1 +12.3 69 +20 +20 1012.8 951.5 +18.3 +17.9
С 0.9
{1.4}
+17.8 +12.5 71 +19 +19 1012.8 951.5 +18.1 +17.8
С 0.6
{1.3}
+17.5 +12.9 74 +19 +19 1012.9 951.6 +17.8 +17.5
С 0.7
{1.1}
+17.2 +13.2 78 +19 +19 1012.9 951.6 +17.5 +17.2
С 0.7
{1.1}
+16.9 +13.4 80 +18 +18 1012.9 951.6 +17.2 +16.9
СВ 0.7
{1.1}
+16.6 +14.1 85 +18 +18 1012.9 951.6 +16.9 +16.6
СВ 0.7
{1.3}
+16.4 +14.2 87 +18 +18 1012.9 951.6 +16.6 +16.4
В 0.9
{1.6}
+16.6 +14.1 86 +18 +18 1012.9 951.6 +16.6 +16.3
ЮВ 1.3
{1.8}
+16.6 +14.0 85 +17 +17 1012.8 951.5 +16.7 +16.5
Ю 1.1
{1.7}
+16.3 +13.9 86 +17 +17 1012.7 951.4 +16.6 +16.3
ЮЗ 0.5
{0.9}
+15.8 +14.1 90 +17 +17 1012.7 951.4 +16.3 +15.8
ЮЗ 0.7
{1.4}
+15.6 +14.1 91 +17 +17 1012.6 951.3 +15.8 +15.6
З 0.7
{1.3}
+15.8 +13.8 88 +17 +17 1012.6 951.3 +15.7 +15.3
З 0.8
{1.5}
+15.8 +13.9 88 +17 +17 1012.6 951.3 +16.2 +15.8
Ю 1.0
{2.1}
+15.9 +13.8 87 +17 +17 1012.5 951.2 +16.0 +15.8
ЮЗ 0.7
{1.6}
+15.6 +13.7 88 +17 +17 1012.5 951.2 +16.0 +15.7
СЗ 0.7
{1.1}
+15.4 +13.9 91 +16 +16 1012.5 951.2 +15.6 +15.4
СВ 0.8
{1.6}
+15.4 +14.2 93 +16 +16 1012.4 951.1 +15.4 +15.2
В 1.3
{2.4}
+15.4 +14.3 93 +16 +16 1012.3 951.0 +15.5 +15.2
В 0.9
{1.5}
+15.1 +14.2 95 +16 +16 1012.3 951.0 +15.4 +15.1
ЮВ 0.7
{1.2}
+14.8 +14.0 95 +16 +16 1012.2 950.9 +15.1 +14.8
С 0.7
{2.6}
+14.6 +14.2 98 +15 +15 1012.0 950.7 +14.8 +14.6
СЗ 0.3
{1.0}
+14.3 +13.9 97 +16 +16 1011.9 950.6 +14.6 +14.3
ЮВ 0.4
{0.8}
+13.8 +13.8 100 +15 +15 1011.7 950.5 +14.0 +13.8
СВ 0.5
{0.9}
+13.6 +13.6 100 +14 +14 1011.6 950.4 +13.8 +13.6
В 0.9
{1.7}
+14.0 +12.9 94 +14 +14 1011.2 950.0 +14.1 +14.0
В 0.7
{1.4}
+13.6 +12.9 95 +14 +14 1011.1 949.9 +14.0 +13.7
ЮВ 0.4
{0.8}
+13.4 +12.9 97 +14 +14 1011.0 949.8 +13.6 +13.4
Ю 0.3
{0.7}
+13.1 +13.1 100 +14 +14 1010.9 949.7 +13.4 +13.1
ЮЗ 0.3
{0.5}
+12.8 +12.8 100 +14 +14 1010.8 949.6 +13.1 +12.8
Ю 0.9
{1.7}
+13.0 +13.0 100 +13 +13 1010.6 949.4 +13.0 +12.8
Ю 1.1
{2.0}
+13.1 +13.1 100 +13 +13 1010.5 949.3 +13.1 +12.9
Ю 1.3
{2.5}
+13.4 +13.4 100 +13 +13 1010.4 949.2 +13.4 +13.1
Ю 1.6
{2.9}
+13.8 +13.5 98 +13 +13 1010.3 949.1 +13.8 +13.3
ЮВ 1.0
{2.9}
+13.7 +13.2 97 +14 +14 1010.3 949.1 +13.9 +13.7
СЗ 0.4
{0.8}
+13.4 +13.1 98 +14 +14 1010.3 949.1 +13.8 +13.4
ЮВ 0.4
{1.0}
+12.9 +12.9 100 +14 +14 1010.3 949.1 +13.4 +12.9
Ю 0.9
{1.8}
+13.1 +13.1 100 +13 +13 1010.2 949.0 +13.1 +12.9
Ю 1.4
{2.6}
+13.7 +13.1 96 +13 +13 1010.1 948.9 +13.7 +13.1
ЮВ 1.7
{3.5}
+14.1 +12.9 93 +14 +14 1010.1 948.9 +14.1 +13.6
ЮВ 2.8
{4.9}
+15.3 +12.6 84 +15 +15 1010.1 948.9 +15.3 +14.1
ЮВ 2.6
{5.0}
+15.4 +12.4 83 +15 +15 1010.1 948.9 +15.4 +15.3
ЮВ 2.3
{3.9}
+15.2 +12.3 83 +15 +15 1010.1 948.9 +15.4 +15.2
ЮВ 2.0
{3.7}
+14.9 +12.2 84 +15 +15 1010.0 948.8 +15.2 +14.9
ЮВ 2.6
{5.1}
+15.3 +12.0 81 +15 +15 1009.9 948.7 +15.3 +14.9
ЮВ 2.8
{4.9}
+15.5 +11.9 79 +15 +15 1009.9 948.7 +15.6 +15.3
ЮВ 2.1
{3.9}
+15.2 +11.8 80 +15 +15 1009.7 948.6 +15.5 +15.2
ЮВ 2.0
{3.4}
+14.8 +11.8 82 +14 +14 1009.7 948.6 +15.2 +14.8
ЮВ 1.7
{3.1}
+14.5 +11.7 83 +14 +14 1009.6 948.5 +14.9 +14.5
ЮВ 1.6
{3.0}
+14.2 +11.7 85 +14 +14 1009.7 948.6 +14.5 +14.2
ЮВ 1.6
{2.8}
+13.5 +11.7 89 +13 +13 1010.0 948.8 +13.7 +13.5
В 1.3
{2.2}
+13.3 +11.5 89 +13 +13 1010.0 948.8 +13.5 +13.3
ЮВ 0.9
{1.6}
+12.9 +11.4 90 +13 +13 1010.0 948.8 +13.3 +12.9
ЮВ 0.9
{2.7}
+12.9 +11.5 91 +13 +13 1010.0 948.8 +12.9 +12.6
ЮВ 2.0
{3.6}
+13.9 +11.4 85 +13 +13 1010.1 948.9 +14.0 +12.9
ЮВ 2.3
{3.9}
+14.6 +11.3 81 +14 +14 1010.1 948.9 +14.6 +13.9
ЮВ 2.9
{5.5}
+15.0 +11.4 79 +14 +14 1010.1 948.9 +15.0 +14.6
ЮВ 2.8
{4.9}
+15.5 +11.5 77 +15 +15 1010.1 948.9 +15.5 +15.0
В 1.5
{3.2}
+16.5 +11.7 73 +17 +17 1010.2 949.0 +16.5 +16.2
ЮВ 1.7
{3.0}
+17.0 +11.7 71 +17 +17 1010.2 949.0 +17.0 +16.5
ЮВ 2.2
{4.2}
+18.0 +11.7 67 +18 +18 1010.1 948.9 +18.0 +17.5
ЮВ 2.3
{4.6}
+18.3 +11.6 65 +19 +19 1010.1 948.9 +18.2 +17.9
ЮВ 2.5
{5.2}
+18.7 +11.2 62 +20 +20 1010.1 948.9 +18.7 +18.3
ЮВ 3.4
{5.8}
+19.0 +11.3 61 +20 +20 1010.1 948.9 +19.0 +18.7
ЮВ 2.8
{5.2}
+19.5 +11.3 59 +21 +21 комфорт 1010.0 948.8 +19.6 +19.0
З 2.2
{5.0}
+24.5 +11.9 45 +26 +26 жарко 1010.2 949.0 +24.6 +23.9
З 2.3
{5.2}
+25.3 +10.1 38 +26 +26 жарко 1009.8 948.7 +25.6 +24.7
ЮЗ 2.1
{4.0}
+25.9 +10.5 38 +27 +27 жарко 1009.8 948.7 +26.9 +25.9
ЮЗ 1.6
{3.3}
+26.5 +12.2 41 +28 +28 жарко 1009.7 948.6 +26.5 +25.9
ЮЗ 1.7
{5.0}
+27.1 +10.0 34 +28 +28 жарко 1009.6 948.5 +27.6 +26.4
З 1.8
{5.3}
+26.8 +9.9 35 +27 +27 жарко 1009.6 948.5 +27.6 +26.6
З 1.9
{5.9}
+27.4 +9.3 32 +28 +28 жарко 1009.5 948.4 +27.6 +26.6
ЮЗ 3.2
{5.9}
+27.5 +9.3 32 +28 +28 жарко 1009.5 948.4 +28.0 +27.2
З 3.5
{6.5}
+27.5 +8.7 31 +28 +28 жарко 1009.5 948.4 +28.1 +27.4
ЮЗ 2.8
{6.7}
+27.7 +8.1 29 +27 +27 жарко 1009.5 948.4 +27.9 +27.2
ЮЗ 2.7
{6.4}
+28.0 +8.8 30 +28 +28 жарко 1009.5 948.4 +28.5 +27.7
ЮЗ 3.1
{7.2}
+27.8 +8.2 29 +28 +28 жарко 1009.5 948.4 +28.3 +27.8
ЮЗ 2.4
{4.6}
+27.2 +9.1 32 +27 +27 жарко 1009.5 948.4 +27.2 +26.8
ЮЗ 2.4
{5.3}
+26.7 +8.7 32 +27 +27 жарко 1009.4 948.3 +27.3 +26.6
ЮЗ 2.2
{4.9}
+26.6 +9.4 34 +27 +27 жарко 1009.4 948.3 +26.7 +26.5
Ю 2.3
{6.9}
+25.2 +11.8 43 +27 +27 жарко 1009.5 948.4 +26.8 +25.2
ЮВ 3.7
{6.2}
+25.3 +12.4 45 +27 +27 жарко 1009.5 948.4 +25.4 +24.8
ЮВ 3.9
{6.6}
+25.6 +11.5 41 +27 +27 жарко 1009.5 948.4 +25.8 +25.3
ЮВ 3.8
{8.0}
+25.6 +11.7 42 +27 +27 жарко 1009.6 948.5 +26.0 +25.6
ЮВ 4.2
{8.1}
+25.3 +12.1 44 +27 +27 жарко 1009.6 948.5 +25.6 +25.2
ЮВ 4.8
{8.6}
+24.9 +11.9 44 +26 +26 жарко 1009.7 948.6 +25.3 +24.9
ЮВ 4.6
{9.0}
+24.8 +12.0 45 +26 +26 жарко 1009.7 948.6 +25.0 +24.6
ЮВ 4.7
{9.1}
+24.5 +12.0 46 +26 +26 жарко 1009.8 948.7 +25.0 +24.4
ЮВ 5.3
{10.4}
+25.0 +12.5 46 +27 +27 жарко 1009.8 948.7 +25.1 +24.6
ЮВ 5.3
{9.4}
+24.3 +12.1 46 +26 +26 жарко 1009.8 948.7 +25.0 +24.3
ЮВ 4.7
{8.9}
+24.1 +12.0 47 +26 +26 жарко 1009.9 948.8 +24.2 +24.0
ЮВ 4.9
{9.5}
+24.0 +11.7 46 +26 +26 жарко 1009.9 948.8 +24.2 +24.0
Местоположение метеостанции Гузар (Кашкадарьинская область, Узбекистан): широта 38.62 долгота 66.27 высота над уровнем моря 0 м.
В архиве по умолчанию представлена погода в Гузаре за последние 1-2 суток. Обновление информации о фактической погоде в базе происходит ежечасно! Архивные данные за месяц целиком и за предыдущие месяцы Вы можете получить, выбрав интересующий диапазон дат из раскрывающегося списка и нажав кнопку "Ввод!".
*Определитесь, кто Вы:
Внимание! Время в таблицах - местное (без учета летнего времени). Для получения всемирного времени необходимо вычесть поправку, которая равна 5 ч.
Смотрите также архив погоды на ближайших метеорологических станциях:
Партнеры нашего сайта:      
Пояснения к столбцам:
  • Ветер - указаны скорость ветра в м/с - средняя за 10 мин, порывы в срок и между сроками (в фигурных скобках) и направление, откуда дует ветер: С - северный,
  • СВ - северо-восточный, В - восточный, ЮВ - юго-восточный, Ю - южный, ЮЗ - юго-западный, З - западный, СЗ - северо-западный.
  • Видимость - горизонтальная дальность видимости в метрах или километрах. При видимости от 1 до 10 км при отсутствии осадков обычно наблюдается дымка, при ухудшении видимости до 1 км и менее - туман. В сухую погоду видимость может ухудшаться дымом, пылью или мглою.
  • Явления - указаны атмосферные явления, наблюдавшиеся в срок или в последний час перед сроком.
  • Солнечная радиация - мощность потока солнечного излучения на поверхность земли и предметов в Вт/м2.
  • T - Температура воздуха - температура, измеренная на высоте 2 м над землей.
  • Td - Температура точки росы - температура, при понижении до которой содержащийся в воздухе водяной пар достигнет насыщения.
  • f - Относительная влажность воздуха - влажноcть воздуха, измеренная на высоте 2 м над землей.
  • Te - Эффективная температура - температура, которую ощущает одетый по сезону человек в тени. Характеристика душности погоды. При расчете учитывается влияние влажности воздуха и скорости ветра на теплоощущения человека.
  • Tes - Эффективная температура на солнце - температура, которую ощущает человек, с поправкой на солнечный нагрев. Характеристика знойности погоды. Зависит от высоты солнца над горизонтом, облачности и скорости ветра. Ночью, в пасмурную погоду, а также при ветре 12 м/с и более поправка равна нулю.
  • P - Атмосферное давление - приведенное к уровню моря атмосферное давление.
  • Po - Атмосферное давление - измеренное на уровне метеостанции атмосферное давление.
  • Tmin - Минимальная температура - минимум температуры воздуха на высоте 2 м над землей.
  • Tmax - Максимальная температура - максимум температуры воздуха на высоте 2 м над землей.
  • R - Количество осадков - Количество выпавших осадков за период времени, мм. При наведении курсора мыши на число - период времени, за который выпало указанное количество осадков.